Flag for U.S.A. Weather past 2 weeks in Stroudsburg, Pennsylvania, U.S.A.

Now
70 °F

Passing clouds.


Feels Like: 68 °F
Forecast: 58 / 80 °F
Wind: 8 mph from East

Location: Pocono Mountains Municipal Airport

Current Time: Sep 4, 2015 at 9:36:35 PM

Latest Report: Sep 4, 2015 at 8:53 PM


Visibility: 7 mi

Pressure: 30.19 "Hg

Humidity: 87%

Dew point: 66 °F

Location of StroudsburgLocation

Historic Weather in Stroudsburg — Graph

°F

Stroudsburg temperature yesterday

Maximum temperature yesterday: 85 °F (at 3:53 PM)
Minimum temperature yesterday: 63 °F (at 12:53 AM)
Average temperature yesterday: 73 °F

Past Weeks' High & Low Weather Summary

 TemperatureHumidityPressure
High85 °F (Sep 3, 3:53 PM)97% (Aug 28, 3:53 AM)30.25 "Hg (Aug 28, 3:53 AM)
Low48 °F (Aug 28, 4:53 AM)43% (Sep 2, 2:53 PM)29.88 "Hg (Aug 24, 7:53 PM)
Average67 °F75%30.06 "Hg
* Reported Aug 20 7:53 PM — Sep 4 7:53 PM, Stroudsburg, Weather by CustomWeather, © 2015

Note: Actual official high and low records may vary slightly from our data, if they occured in-between our weather recording intervals... More about our weather records

Advertising

Stroudsburg weather history for previous 24 hours

 ConditionsComfort  
Time TempWeatherWind HumidityBarometerVisibility
7:53 PM
Fri, Sep 4
72 °FBroken clouds.9 mph81%30.16 "Hg7 mi
6:53 PM73 °FCloudy.7 mph79%30.15 "Hg7 mi
6:03 PM75 °FPartly sunny.9 mph76%30.17 "Hg8 mi
5:53 PM76 °FScattered clouds.9 mph72%30.13 "Hg8 mi
4:53 PM76 °FScattered clouds.10 mph72%30.13 "Hg8 mi
4:04 PM77 °FScattered clouds.10 mph69%30.17 "Hg9 mi
3:53 PM77 °FBroken clouds.13 mph71%30.13 "Hg8 mi
2:53 PM76 °FPartly sunny.12 mph74%30.13 "Hg8 mi
1:53 PM77 °FBroken clouds.10 mph71%30.13 "Hg9 mi
12:53 PM76 °FBroken clouds.9 mph72%30.12 "Hg8 mi
11:53 AM76 °FPassing clouds.9 mph72%30.12 "Hg9 mi
10:53 AM75 °FPartly sunny.9 mph74%30.11 "Hg9 mi
9:53 AM74 °FSunny.9 mph76%30.09 "Hg8 mi
8:53 AM71 °FSunny.13 mph78%30.08 "Hg9 mi
7:53 AM70 °FSunny.9 mph81%30.06 "Hg8 mi
6:53 AM68 °FClear.6 mph87%30.04 "Hg7 mi
5:53 AM68 °FClear.8 mph87%30.01 "Hg8 mi
4:53 AM67 °FClear.7 mph87%29.99 "Hg7 mi
3:53 AM63 °FFog.3 mph93%29.98 "Hg4 mi
2:53 AM65 °FFog.No wind94%29.98 "Hg5 mi
1:53 AM66 °FClear.No wind90%29.98 "Hg7 mi
12:53 AM69 °FClear.5 mph87%29.97 "Hg8 mi
11:53 PM
Thu, Sep 3
71 °FClear.6 mph81%29.96 "Hg8 mi
10:53 PM71 °FClear.7 mph78%29.95 "Hg9 mi
9:53 PM71 °FClear.7 mph78%29.95 "Hg9 mi
Weather by CustomWeather, © 2015

See weather overviewHow to use our weather pages